This is the latest recevied weather packets stored in our database for station/object PY2UEP-1. If no packets are shown the sender has not sent any weather packets the latest 10 day(s).
| Time | Temp. | Humidity | Pressure | Rain* | Wind** | Luminosity | Snow |
|---|---|---|---|---|---|---|---|
| 1778276094 | 26.11° C | 52% | 1013.2 hPa | 0 mm | - | - | - |
| 1778275793 | 26.11° C | 52% | 1013 hPa | 0 mm | - | - | - |
| 1778275493 | 25.56° C | 53% | 1013 hPa | 0 mm | - | - | - |
| 1778275193 | 25° C | 56% | 1013 hPa | 0 mm | - | - | - |
| 1778274893 | 25° C | 56% | 1012.6 hPa | 0 mm | - | - | - |
| 1778274593 | 25.56° C | 55% | 1012.5 hPa | 0 mm | - | - | - |
| 1778274293 | 25.56° C | 54% | 1012.5 hPa | 0 mm | - | - | - |
| 1778273993 | 26.11° C | 53% | 1012.5 hPa | 0 mm | - | - | - |
| 1778273693 | 26.11° C | 52% | 1012.4 hPa | 0 mm | - | - | - |
| 1778273393 | 26.67° C | 51% | 1012.4 hPa | 0 mm | - | - | - |
| 1778273093 | 27.22° C | 48% | 1012.4 hPa | 0 mm | - | - | - |
| 1778272793 | 27.22° C | 48% | 1012.5 hPa | 0 mm | - | - | - |
| 1778272493 | 27.22° C | 47% | 1012.6 hPa | 0 mm | - | - | - |
| 1778272193 | 27.78° C | 47% | 1012.5 hPa | 0 mm | - | - | - |
| 1778271893 | 27.78° C | 46% | 1012.5 hPa | 0 mm | - | - | - |
| 1778271593 | 27.78° C | 46% | 1012.5 hPa | 0 mm | - | - | - |
| 1778271293 | 27.78° C | 46% | 1012.7 hPa | 0 mm | - | - | - |
| 1778270993 | 27.78° C | 45% | 1012.7 hPa | 0 mm | - | - | - |
| 1778270693 | 28.33° C | 45% | 1012.7 hPa | 0 mm | - | - | - |
| 1778270393 | 28.33° C | 45% | 1012.7 hPa | 0 mm | - | - | - |
| 1778270093 | 28.33° C | 45% | 1012.6 hPa | 0 mm | - | - | - |
| 1778269793 | 28.33° C | 44% | 1012.5 hPa | 0 mm | - | - | - |
| 1778269493 | 28.33° C | 44% | 1012.4 hPa | 0 mm | - | - | - |
| 1778269193 | 28.33° C | 43% | 1012.4 hPa | 0 mm | - | - | - |
| 1778268893 | 28.33° C | 43% | 1012.4 hPa | 0 mm | - | - | - |
* Rain since midnight (hover to see other rain measurements)
** Current wind speed in m/s (hover to see current wind gust speed)